Regional Weather Roundup
Issued by NWS

Home | Current Version | Previous Version | Graphics & Text | Print | Product List | Glossary On
Versions: 1 2 3 4 5 6 7 8 9 10 11 12 13 14 15 16 17 18 19 20 21 22 23 24 25 26 27 28 29 30 31 32 33 34 35 36 37 38 39 40 41 42 43 44 45 46 47 48 49 50
000
ASUS45 KCYS 050910
RWRWY

WYOMING REGIONAL WEATHER ROUNDUP
NATIONAL WEATHER SERVICE CHEYENNE WY
300 AM MDT WED AUG 05 2015

NOTE:  "FAIR" INDICATES FEW OR NO CLOUDS BELOW 12,000 FEET
WITH NO SIGNIFICANT WEATHER AND/OR OBSTRUCTIONS TO VISIBILITY.

WYZ001-051000-
YELLOWSTONE NATIONAL PARK

CITY           SKY/WX    TMP DP  RH WIND       PRES   REMARKS
LK YELLOWSTONE   N/A     41  40  96 NW3       30.30S
W YELLOWSTONE  NOT AVBL

$$
WYZ002>013-054>058-071-098>099-051000-
NORTHERN WYOMING

CITY           SKY/WX    TMP DP  RH WIND       PRES   REMARKS
JACKSON        NOT AVBL
CODY           FAIR      57  46  67 S5        30.09S
GREYBULL       FAIR      57  54  89 E6        30.04S
WORLAND        FAIR      56  52  86 SE6       30.05F
SHERIDAN       FAIR      57  52  83 CALM      30.03R
BUFFALO        FAIR      60  47  61 W9        30.08S
GILLETTE       FAIR      61  55  81 SW5       30.03F
HULETT         FAIR      55  52  88 CALM      30.05F
NEWCASTLE      FAIR      55  54  94 CALM      30.06F

$$
WYZ014>020-022>026-101>103-051000-
CENTRAL WYOMING

CITY           SKY/WX    TMP DP  RH WIND       PRES   REMARKS
BIG PINEY      FAIR      48  44  86 CALM      30.24S
PINEDALE       FAIR      46  45  93 W3        30.25S
DUBOIS         FAIR      48  37  66 NW8       30.23F
LANDER         FAIR      61  48  62 SW5       30.12S
RIVERTON       FAIR      61  46  57 W3        30.13F
CASPER         FAIR      54  52  93 NW3       30.13S
DOUGLAS        FAIR      53  51  93 N5        30.10F

$$
WYZ021-027>030-104>119-051000-
SOUTHERN WYOMING

CITY           SKY/WX    TMP DP  RH WIND       PRES   REMARKS
EVANSTON       FAIR      61  39  44 E3        30.21F
KEMMERER       FAIR      54  37  54 N9        30.24F
FORT BRIDGER   MOSUNNY   61  41  48 MISG      30.24S
ROCK SPRINGS   FAIR      59  42  53 S9        30.21F
DIXON          FAIR      54  38  54 NE5       30.25S
RAWLINS        FAIR      51  38  60 SE3       30.23R
SARATOGA       FAIR      52  34  50 SE5       30.26S
LARAMIE        FAIR      48  38  68 S7        30.26F
CHEYENNE       FAIR      56  52  86 VRB3      30.20S
TORRINGTON     FOG       57  57 100 E6        30.07S VSB 1/2
PINE BLUFFS    FAIR      52  50  93 CALM      30.15S

$$



USA.gov is the U.S. government's official web portal to all federal, state and local government web resources and services.